Weather History for Statesville, NC

Change the Weather History Date:

Friday, January 11, 2013

  Actual Average (KHKY) Record (KHKY)
Temperature  
Mean Temperature 46 °F -  
Max Temperature 48 °F 46 °F 73 °F (1949)
Min Temperature 42 °F 26 °F 4 °F (1982)
Degree Days  
Heating Degree Days 19    
Moisture  
Dew Point 43 °F    
Average Humidity 94    
Maximum Humidity 97    
Minimum Humidity 54    
Precipitation  
Precipitation 0.05 in - - ()
Sea Level Pressure  
Sea Level Pressure 30.26 in    
Wind  
Wind Speed 4 mph (NE)    
Max Wind Speed 10 mph    
Max Gust Speed 17 mph    
Visibility 3 miles    
Events Fog , Rain    
Averages and records for this station are not official NWS values.
T = Trace of Precipitation, MM = Missing Value Source: NWS Daily Summary

Daily Weather History Graph

Daily Weather History Graph

Search for Another Location

Airport:

Trip Planner

Search our weather history database for the weather conditions in past years. The results will help you decide how hot, cold, wet, or windy it might be!

Date:

Astronomy

Jan. 11, 2013 Rise Set
Actual Time 7:33 AM EST 5:30 PM EST
Civil Twilight 7:05 AM EST 5:58 PM EST
Nautical Twilight 6:34 AM EST 6:29 PM EST
Astronomical Twilight 6:03 AM EST 7:00 PM EST
Moon 7:07 AM EST (1/11) 5:44 PM EST (1/11)
Length of Visible Light 10h 52m
Length of Day
9h 56m
Waning Crescent, 0% of the Moon is Illuminated
Jan 11
Waning Crescent
Jan 11
New
Jan 18
First Quarter
Jan 26
Full
Feb 3
Last Quarter

Hourly Weather History & Observations

Time (EST) Temp. Windchill Dew Point Humidity Pressure Visibility Wind Dir Wind Speed Gust Speed Precip Events Conditions
12:15 AM 50.7 °F - 34.5 °F 54% 30.38 in 10.0 mi NNE 5.8 mph - N/A   Overcast
12:35 AM 50.2 °F - 37.4 °F 62% 30.37 in 10.0 mi East 4.6 mph - N/A Rain Rain
12:55 AM 48.4 °F - 40.5 °F 74% 30.37 in 7.0 mi ENE 4.6 mph - N/A   Heavy Drizzle
1:15 AM 45.9 °F 44.6 °F 41.9 °F 86% 30.37 in 7.0 mi NNE 3.5 mph - 0.01 in Rain Rain
1:35 AM 45.5 °F 44.2 °F 42.8 °F 90% 30.37 in 7.0 mi NNE 3.5 mph - 0.01 in   Light Drizzle
1:55 AM 45.5 °F 43.2 °F 42.8 °F 90% 30.35 in 10.0 mi NNE 4.6 mph - 0.01 in   Light Drizzle
2:15 AM 45.5 °F 44.2 °F 43.0 °F 91% 30.37 in 7.0 mi NNW 3.5 mph - N/A   Light Drizzle
2:35 AM 45.1 °F 42.0 °F 43.2 °F 93% 30.35 in 10.0 mi NNE 5.8 mph - N/A   Overcast
2:55 AM 45.3 °F 41.6 °F 43.3 °F 93% 30.34 in 10.0 mi NNE 6.9 mph - N/A   Overcast
3:15 AM 45.5 °F 42.5 °F 43.7 °F 93% 30.34 in 7.0 mi NNE 5.8 mph - N/A   Overcast
3:35 AM 45.5 °F 41.8 °F 43.7 °F 93% 30.32 in 7.0 mi NNE 6.9 mph - N/A   Overcast
3:55 AM 45.5 °F 42.5 °F 43.9 °F 94% 30.31 in 5.0 mi NNE 5.8 mph - N/A   Overcast
4:15 AM 45.7 °F 43.4 °F 44.1 °F 94% 30.31 in 5.0 mi NNE 4.6 mph - N/A   Overcast
4:35 AM 45.7 °F 44.4 °F 44.4 °F 95% 30.30 in 2.0 mi NE 3.5 mph - N/A   Overcast
4:55 AM 45.7 °F 43.4 °F 44.2 °F 95% 30.30 in 2.0 mi NE 4.6 mph - N/A   Overcast
5:15 AM 45.7 °F 42.7 °F 44.4 °F 95% 30.32 in 1.8 mi NNE 5.8 mph - N/A   Light Drizzle
5:35 AM 45.5 °F 41.8 °F 44.2 °F 95% 30.31 in 1.5 mi NE 6.9 mph - N/A   Heavy Drizzle
5:55 AM 45.5 °F 41.8 °F 44.1 °F 95% 30.30 in 1.5 mi NE 6.9 mph - 0.01 in Rain Light Rain
6:15 AM 45.3 °F 40.6 °F 44.1 °F 95% 30.30 in 1.8 mi ENE 9.2 mph - N/A   Light Drizzle
6:35 AM 45.1 °F 39.9 °F 43.9 °F 95% 30.29 in 1.8 mi ENE 10.4 mph 17.3 mph N/A   Overcast
6:55 AM 45.1 °F 42.0 °F 43.9 °F 95% 30.30 in 2.5 mi NE 5.8 mph - N/A   Overcast
7:15 AM 45.1 °F 40.8 °F 43.9 °F 95% 30.30 in 2.0 mi ENE 8.1 mph - N/A   Overcast
7:35 AM 45.0 °F 41.8 °F 43.9 °F 96% 30.30 in 1.2 mi NE 5.8 mph - N/A   Light Drizzle
7:55 AM 44.8 °F 40.4 °F 43.7 °F 96% 30.31 in 1.0 mi NE 8.1 mph - N/A   Overcast
8:15 AM 44.6 °F 40.2 °F 43.3 °F 95% 30.32 in 1.0 mi NE 8.1 mph - N/A   Overcast
8:35 AM 44.2 °F 39.2 °F 43.2 °F 96% 30.31 in 0.8 mi ENE 9.2 mph - N/A   Overcast
8:55 AM 44.1 °F 39.0 °F 43.0 °F 96% 30.30 in 1.0 mi NE 9.2 mph - N/A   Drizzle
9:15 AM 43.9 °F 39.9 °F 42.8 °F 96% 30.32 in 1.8 mi NE 6.9 mph - N/A   Drizzle
9:35 AM 43.9 °F 39.9 °F 42.8 °F 96% 30.32 in 2.0 mi NE 6.9 mph - N/A   Light Drizzle
9:55 AM 43.5 °F 39.4 °F 42.4 °F 96% 30.32 in 3.0 mi NNE 6.9 mph - 0.01 in Rain Light Rain
10:15 AM 43.3 °F 39.9 °F 42.3 °F 96% 30.32 in 2.0 mi ENE 5.8 mph - N/A   Drizzle
10:35 AM 43.7 °F 41.1 °F 42.4 °F 95% 30.31 in 1.8 mi ENE 4.6 mph - N/A   Light Drizzle
10:55 AM 43.7 °F 42.1 °F 42.4 °F 95% 30.31 in 2.0 mi NE 3.5 mph - N/A   Light Drizzle
11:15 AM 43.7 °F 41.1 °F 42.4 °F 95% 30.30 in 2.5 mi North 4.6 mph - N/A   Drizzle
11:35 AM 43.7 °F 41.1 °F 42.4 °F 95% 30.28 in 2.5 mi NE 4.6 mph - 0.01 in   Heavy Drizzle
11:55 AM 43.7 °F 41.1 °F 42.3 °F 95% 30.27 in 3.0 mi NNE 4.6 mph - 0.01 in Rain Rain
12:15 PM 44.1 °F 41.5 °F 42.8 °F 95% 30.25 in 4.0 mi NNE 4.6 mph - 0.01 in Rain Light Rain
12:35 PM 43.7 °F 41.1 °F 42.6 °F 96% 30.24 in 7.0 mi North 4.6 mph - 0.01 in   Overcast
12:55 PM 43.7 °F 41.1 °F 42.6 °F 96% 30.23 in 7.0 mi NNE 4.6 mph - 0.01 in   Overcast
1:15 PM 43.2 °F 40.5 °F 41.9 °F 95% 30.23 in 4.0 mi North 4.6 mph - N/A   Overcast
1:35 PM 42.8 °F 40.1 °F 41.5 °F 95% 30.22 in 2.0 mi North 4.6 mph - N/A   Overcast
1:55 PM 43.0 °F 40.3 °F 41.9 °F 96% 30.21 in 2.0 mi North 4.6 mph - N/A   Overcast
2:15 PM 43.2 °F 40.5 °F 41.9 °F 95% 30.21 in 2.5 mi NNE 4.6 mph - N/A   Overcast
2:35 PM 43.2 °F 40.5 °F 41.9 °F 95% 30.22 in 1.5 mi North 4.6 mph - N/A   Overcast
2:55 PM 43.2 °F 41.5 °F 42.1 °F 96% 30.21 in 1.2 mi NNE 3.5 mph - N/A   Overcast
3:15 PM 43.0 °F - 41.9 °F 96% 30.20 in 1.0 mi Calm Calm - N/A   Overcast
3:35 PM 43.5 °F - 42.3 °F 95% 30.19 in 1.0 mi Calm Calm - N/A   Overcast
3:55 PM 43.7 °F - 42.4 °F 95% 30.20 in 1.2 mi Calm Calm - N/A   Overcast
4:15 PM 43.7 °F - 42.8 °F 97% 30.19 in 1.2 mi Calm Calm - N/A   Overcast
4:35 PM 43.7 °F - 42.4 °F 95% 30.19 in 1.0 mi Calm Calm - N/A   Overcast
4:55 PM 43.9 °F - 42.8 °F 96% 30.19 in 1.2 mi Calm Calm - N/A   Overcast
5:15 PM 43.9 °F - 42.8 °F 96% 30.18 in 1.2 mi Calm Calm - N/A   Overcast
5:35 PM 43.9 °F - 42.8 °F 96% 30.18 in 1.0 mi Calm Calm - N/A   Overcast
5:55 PM 43.7 °F - 42.8 °F 97% 30.17 in 1.2 mi Calm Calm - N/A   Overcast
6:15 PM 43.9 °F - 42.8 °F 96% 30.17 in 1.2 mi Calm Calm - N/A   Overcast
6:35 PM 43.9 °F - 43.0 °F 97% 30.19 in 1.5 mi Calm Calm - N/A   Overcast
6:55 PM 44.1 °F - 43.0 °F 96% 30.20 in 1.0 mi Calm Calm - N/A   Overcast
7:15 PM 44.1 °F - 43.2 °F 97% 30.20 in 0.8 mi Calm Calm - N/A   Overcast
7:35 PM 44.1 °F - 43.2 °F 97% 30.20 in 0.8 mi Calm Calm - N/A   Overcast
7:55 PM 44.2 °F - 43.3 °F 97% 30.20 in 0.8 mi Calm Calm - N/A   Overcast
8:15 PM 44.2 °F - 43.3 °F 97% 30.19 in 0.8 mi Calm Calm - N/A   Overcast
8:35 PM 44.6 °F - 43.7 °F 97% 30.19 in 0.8 mi Calm Calm - N/A   Overcast
8:55 PM 44.6 °F - 43.7 °F 97% 30.18 in 1.0 mi Calm Calm - N/A   Overcast
9:15 PM 44.6 °F - 43.7 °F 97% 30.17 in 0.5 mi Calm Calm - N/A Fog Fog
9:35 PM 44.6 °F - 43.7 °F 97% 30.17 in 1.0 mi Calm Calm - N/A   Overcast
9:55 PM 44.8 °F - 43.9 °F 97% 30.18 in 1.2 mi Calm Calm - N/A   Overcast
10:15 PM 45.0 °F - 44.1 °F 97% 30.17 in 2.0 mi Calm Calm - N/A   Overcast
10:35 PM 45.0 °F - 44.1 °F 97% 30.18 in 2.0 mi Calm Calm - N/A   Overcast
10:55 PM 45.0 °F - 44.1 °F 97% 30.18 in 2.0 mi Calm Calm - N/A   Overcast
11:15 PM 45.0 °F - 44.1 °F 97% 30.17 in 2.5 mi Calm Calm - N/A   Overcast
11:35 PM 45.1 °F - 44.2 °F 97% 30.17 in 1.8 mi Calm Calm - N/A   Overcast